Terminal Aerodrome Forecast
Issued by NWS Mobile, AL

Home | Current Version | Previous Version | Text Only | Print | Product List | Glossary On
Versions: 1 2 3 4 5 6 7 8 9 10 11 12 13 14 15 16 17 18 19 20 21 22 23
722
FTUS44 KMOB 110534
TAFPNS
TAF
KPNS 110534Z 1106/1206 24006KT P6SM SKC
     FM111600 22012G18KT P6SM SKC
     FM120100 23008KT P6SM SCT250=

USA.gov is the U.S. government's official web portal to all federal, state and local government web resources and services.